Effective Sunday, March 17, 2024, the National Weather Service National Data Buoy Center will discontinue its Dial-A-Buoy Interactive Voice Response system. For more information, see Service Change Notice 24-06 (PDF).

Station TPLM2 - Thomas Point, MD Image indicating link to RSS feed of recent meteorological observations for station TPLM2


Conditions at TPLM2 as of
(2:00 pm EST)
1900 GMT on 02/26/2024:
     

Click on the graph icon in the table below to see a time series plot of the last five days of that observation.

5-day plot - Wind Direction Wind Direction (WDIR): SE ( 130 deg true )
5-day plot - Wind Speed Wind Speed (WSPD): 7 kts
5-day plot - Wind Gust Wind Gust (GST): 7 kts
5-day plot - Atmospheric Pressure Atmospheric Pressure (PRES):30.02 in
5-day plot - Pressure Tendency Pressure Tendency (PTDY):-0.06 in ( Falling )
5-day plot - Air Temperature Air Temperature (ATMP): 47.3 °F
5-day plot - Wind Chill Wind Chill (CHILL): 43.5 °F
5-day plot - Wind Speed at 10 Meters Wind Speed at 10 meters (WSPD10M): 6 kts
5-day plot - Wind Speed at 20 Meters Wind Speed at 20 meters (WSPD20M): 8 kts
5-day plot -  Wind Speed, Wind Gust and Atmospheric Pressure Combined plot of Wind Speed, Gust, and Air Pressure
Continuous Winds
TIME
(EST)
5-day plot - Wind Direction WDIR 5-day plot - Wind Speed WSPD
2:00 pmSE ( 132 deg ) 6 kts
1:50 pmSE ( 132 deg ) 6 kts
1:40 pmSE ( 137 deg ) 7 kts
1:30 pmSE ( 136 deg ) 6 kts
1:20 pmSE ( 133 deg ) 5 kts
1:10 pmSE ( 125 deg ) 9 kts
 
Peak gust during the measurement hour
TIME
(EST)
5-day plot - Gust Direction GDR 5-day plot - Gust Speed GST
1:01 pmSE ( 130 deg ) 10 kts
Previous observations
TIME
(EST)
5-day plot - Wind Direction
WDIR
 
5-day plot - Wind Speed
WSPD
kts
5-day plot - Wind Gust
GST
kts
5-day plot - Wave Height
WVHT
ft
5-day plot - Dominant Wave Period
DPD
sec
5-day plot - Average Wave Period
APD
sec
5-day plot - Mean Wave Direction
MWD
 
5-day plot - Atmospheric Pressure
PRES
in
5-day plot - Pressure Tendency
PTDY
in
5-day plot - Air Temperature
ATMP
°F
5-day plot - Water Temperature
WTMP
°F
5-day plot - Dew Point
DEWP
°F
5-day plot - Salinity
SAL
psu
5-day plot - Visibility
VIS
nmi
5-day plot - Tide (above MLLW)
TIDE
ft
2024-02-26 01:00 pm SE 9 10----30.04-0.04 46.8-----
2024-02-26 12:00 pmESE 10 10----30.06-0.01 45.5-----
2024-02-26 11:00 amESE 10 10----30.08+0.00 43.3-----
2024-02-26 10:00 am SE 9 10----30.09+0.02 42.8-----
2024-02-26 09:00 amSSE 11 12----30.07+0.01 42.6-----
2024-02-26 08:00 amSSE 10 11----30.08+0.01 42.4-----
2024-02-26 07:00 am SE 11 11----30.06-0.01 42.1-----
2024-02-26 06:00 am SE 12 13----30.06-0.01 41.7-----
2024-02-26 05:00 amSSE 14 16----30.06-0.02 41.2-----
2024-02-26 04:00 amSSE 15 16----30.07-0.01 40.8-----
2024-02-26 03:00 amSSE 15 17----30.07-0.03 40.5-----
2024-02-26 02:00 amSSE 17 20----30.09-0.04 40.3-----
2024-02-26 01:00 amSSE 20 23----30.09-0.04 40.3-----
2024-02-26 12:00 amSSE 21 24----30.10-0.04 39.9-----
2024-02-25 11:00 pmSSE 17 19----30.13-0.01 40.1-----
2024-02-25 10:00 pmSSE 22 24----30.13+0.00 39.7-----
2024-02-25 09:00 pmSSE 19 21----30.14+0.01 40.1-----
2024-02-25 08:00 pmSSE 19 21----30.14+0.01 39.9-----
2024-02-25 07:00 pmSSE 17 18----30.14+0.00 40.6-----
2024-02-25 06:00 pm SE 18 19----30.12-0.03 40.6-----
2024-02-25 05:00 pm SE 15 16----30.13-0.05 40.3-----
2024-02-25 04:00 pm SE 14 15----30.14-0.07 39.4-----
2024-02-25 03:00 pm SE 13 14----30.15-0.08 37.9-----
2024-02-25 02:00 pmESE 8 9----30.17-0.07 35.4-----